"Pseudo-MPEC" for ZTs0053

Created 2023 Mar 21 18:22:19 UT using Find_Orb

Click here for an explanation of pseudo-MPECs

 
 Astrometry: 
     ZTs0053* C2023 03 13.31810 12 01 09.18 -13 20 41.9    ~3DJM 16.12gUNEOCPI41
     ZTs0053  C2023 03 13.31844 12 01 12.39 -13 21 23.5    ~3DJM 16.12gUNEOCPI41
     ZTs0053  C2023 03 13.31903 12 01 17.70 -13 22 32.2    ~3DJM 16.21gUNEOCPI41
     ZTs0053  C2023 03 13.31938 12 01 20.88 -13 23 13.5    ~3DJM 16.21gUNEOCPI41
     ZTs0053  C2023 03 13.37773412 09 59.406-15 13 36.35   ~3F6q 15.85RUNEOCPI41
     ZTs0053  C2023 03 13.37808112 10 02.594-15 14 16.35   ~3F6q 15.85RUNEOCPI41

Station data:
(I41) Palomar Mountain--ZTF  (N33.357338 W116.859780)  US/California.
   Observers B. T. Bolin, Z. T. F. Collaboration. Measurers B. T. Bolin,
   Z.-Y. Lin, F. J. Masci. 1.2-m f/2.4 Schmidt.

Orbital elements:  ZTs0053
   Perigee 2023 Mar 12.94420 +/- 6.72 TT = 22:39:38 (JD 2460016.44420)
Epoch 2023 Mar 13.0 TT = JDT 2460016.5                           AutoNEOCP
q217679.252 +/- 886088              (J2000 equator)
H   29.10 G 0.15                    Peri.  178.22269 +/- 8
                                    Node   343.78454 +/- 0.24
e   2.9138716 +/- 0.264             Incl.   37.74083 +/- 1.7
From 6 observations 2023 Mar. 13 (86.4 min); mean residual 0".87
Residuals in arcseconds: 
230313 I41  1.6-  .95+    230313 I41  .40+  .05-    230313 I41  .99-  1.0+    
230313 I41  .48+  .68-    230313 I41  .80+  .24-    230313 I41  .96+  1.0-    

Ephemerides (geocentric):
Date (UTC) HH   RA             Dec           delta  r     elong  mag " sig PA
---- --------  ------------   ------------  ------ ------ -----  --- --------
2023 03 21 18  17 33 35.732   -37 12 19.59  .01066 0.9972  95.8 22.2  38d 176
2023 03 21 19  17 33 49.257   -37 12 01.37  .01071 0.9973  95.8 22.2  40d 174
2023 03 21 20  17 34 02.655   -37 11 43.21  .01075 0.9973  95.8 22.2  41d 172
2023 03 21 21  17 34 15.930   -37 11 25.10  .01080 0.9973  95.8 22.2  43d 171
2023 03 21 22  17 34 29.081   -37 11 07.04  .01085 0.9973  95.8 22.2  44d 170
2023 03 21 23  17 34 42.111   -37 10 49.04  .01089 0.9973  95.8 22.3  45d 170
2023 03 22 00  17 34 55.022   -37 10 31.09  .01094 0.9973  95.8 22.3  42d  28
2023 03 22 01  17 35 07.815   -37 10 13.20  .01099 0.9974  95.8 22.3  41d  28
2023 03 22 02  17 35 20.491   -37 09 55.36  .01103 0.9974  95.8 22.3  40d  28
2023 03 22 03  17 35 33.052   -37 09 37.57  .01108 0.9974  95.8 22.3  39d  28
2023 03 22 04  17 35 45.500   -37 09 19.85  .01112 0.9974  95.7 22.3  38d  28
2023 03 22 05  17 35 57.836   -37 09 02.18  .01117 0.9974  95.7 22.3  37d  28
2023 03 22 06  17 36 10.061   -37 08 44.56  .01122 0.9974  95.7 22.3  36d  28
2023 03 22 07  17 36 22.177   -37 08 27.01  .01126 0.9975  95.7 22.3  35d  28
2023 03 22 08  17 36 34.185   -37 08 09.51  .01131 0.9975  95.8 22.3  34d  28
2023 03 22 09  17 36 46.087   -37 07 52.07  .01135 0.9975  95.8 22.3  34d  28
2023 03 22 10  17 36 57.883   -37 07 34.68  .01140 0.9975  95.8 22.4  33d  27
2023 03 22 11  17 37 09.576   -37 07 17.36  .01145 0.9975  95.8 22.4  32d  27
2023 03 22 12  17 37 21.166   -37 07 00.09  .01149 0.9975  95.8 22.4  32d  27
2023 03 22 13  17 37 32.655   -37 06 42.88  .01154 0.9976  95.8 22.4  31d  26
2023 03 22 14  17 37 44.043   -37 06 25.73  .01159 0.9976  95.8 22.4  31d  26
2023 03 22 15  17 37 55.333   -37 06 08.64  .01163 0.9976  95.8 22.4  30d  25
2023 03 22 16  17 38 06.526   -37 05 51.61  .01168 0.9976  95.8 22.4  29d  25
2023 03 22 17  17 38 17.621   -37 05 34.63  .01172 0.9976  95.8 22.4  29d  25
2023 03 22 18  17 38 28.622   -37 05 17.72  .01177 0.9976  95.8 22.4  28d  24
2023 03 22 19  17 38 39.529   -37 05 00.87  .01182 0.9977  95.8 22.4  28d  24
2023 03 22 20  17 38 50.342   -37 04 44.07  .01186 0.9977  95.8 22.4  27d  23
2023 03 22 21  17 39 01.064   -37 04 27.33  .01191 0.9977  95.8 22.4  27d  23
2023 03 22 22  17 39 11.695   -37 04 10.66  .01195 0.9977  95.8 22.5  26d  22
2023 03 22 23  17 39 22.236   -37 03 54.04  .01200 0.9977  95.8 22.5  26d  21
2023 03 23 00  17 39 32.689   -37 03 37.48  .01205 0.9978  95.8 22.5  26d  21
2023 03 23 01  17 39 43.054   -37 03 20.98  .01209 0.9978  95.8 22.5  25d  20
2023 03 23 02  17 39 53.333   -37 03 04.54  .01214 0.9978  95.8 22.5  25d  20
2023 03 23 03  17 40 03.526   -37 02 48.16  .01218 0.9978  95.8 22.5  24d  19
2023 03 23 04  17 40 13.635   -37 02 31.84  .01223 0.9978  95.8 22.5  24d  18
2023 03 23 05  17 40 23.660   -37 02 15.58  .01228 0.9978  95.8 22.5  23d  18
2023 03 23 06  17 40 33.603   -37 01 59.38  .01232 0.9979  95.8 22.5  23d  17
2023 03 23 07  17 40 43.463   -37 01 43.23  .01237 0.9979  95.9 22.5  22d  16
2023 03 23 08  17 40 53.244   -37 01 27.15  .01241 0.9979  95.9 22.5  22d  15
2023 03 23 09  17 41 02.944   -37 01 11.13  .01246 0.9979  95.9 22.5  22d  15
2023 03 23 10  17 41 12.566   -37 00 55.16  .01250 0.9979  95.9 22.5  21d  14
2023 03 23 11  17 41 22.110   -37 00 39.25  .01255 0.9980  95.9 22.6  21d  13
2023 03 23 12  17 41 31.576   -37 00 23.40  .01260 0.9980  95.9 22.6  20d  12
2023 03 23 13  17 41 40.967   -37 00 07.62  .01264 0.9980  95.9 22.6  20d  11
2023 03 23 14  17 41 50.282   -36 59 51.88  .01269 0.9980  95.9 22.6  19d  10
2023 03 23 15  17 41 59.523   -36 59 36.21  .01273 0.9980  95.9 22.6  19d   9
2023 03 23 16  17 42 08.690   -36 59 20.60  .01278 0.9981  95.9 22.6  19d   8
2023 03 23 17  17 42 17.784   -36 59 05.04  .01283 0.9981  95.9 22.6  18d   7